Temp
26 24 22 23 22 23 22 23 22 22 22 21 20 20 20 19 19 19 19 20 20 20 20 20 20 20 20 20 19 20 20 20 20 20 20 19 19 19 20 19 19 19 19 19 19 19 19 19 19 19 19 18 18 18 18 18 18 18 18 18 18 18 19 18 18 19 19 18 18 18 18 18 18 18 18 18 18 19 19 19 19 19 18 17 17
26 23 22 23 23 23 22 23 22 22 22 21 20 20 19 19 19 19 19 19 19 19 19 19 19 19 19 19 19 20 20 20 20 20 20 19 19 19 19 19 19 19 19 19 19 19 19 20 20 20 19 18 18 18 18 18 18 18 18 18 18 19 19 19 19 19 19 19 18 18 18 18 18 17 17 18 19 19 19 19 19 18 17 17 17
25 22 22 22 23 23 22 23 22 22 22 21 20 19 19 19 19 19 19 19 19 19 19 19 19 19 19 19 20 20 20 20 20 19 20 19 19 19 19 19 20 20 20 19 19 20 20 20 20 20 19 19 19 19 19 19 19 19 18 18 18 19 19 19 19 19 19 19 19 19 19 18 17 17 17 18 19 19 19 19 18 18 17 17 17
24 22 21 22 23 22 23 23 22 22 21 21 20 19 19 19 19 19 19 19 19 19 19 19 19 19 19 20 20 20 19 19 19 19 20 19 19 19 19 19 19 19 20 19 19 20 20 20 20 19 19 19 19 19 19 19 19 19 18 18 19 19 19 19 20 20 19 20 20 20 20 19 18 17 17 17 18 17 18 18 17 17 17 17 17
24 22 21 22 22 22 22 22 22 22 21 20 19 19 19 19 19 19 19 19 19 19 19 19 19 20 20 20 20 20 19 19 19 19 19 19 19 19 19 19 19 19 19 19 19 19 19 19 19 19 19 18 18 18 18 18 18 18 18 18 19 19 19 20 20 20 20 21 21 22 21 20 18 18 17 17 17 17 17 17 17 17 17 17 17
24 22 21 21 21 22 22 22 22 21 21 19 19 19 19 19 19 19 19 19 19 19 19 19 19 19 20 20 19 19 19 19 19 19 19 19 19 19 19 19 19 19 19 19 19 19 19 19 19 19 18 18 18 18 18 18 18 18 18 18 18 19 20 20 20 21 21 21 22 22 22 21 19 18 17 17 17 17 17 17 17 17 17 17 17
24 23 22 21 20 22 22 22 22 21 20 19 19 18 18 19 18 19 18 19 19 19 19 19 19 19 20 19 19 20 19 19 19 19 19 19 19 19 19 19 19 19 19 19 19 19 19 19 19 19 18 18 18 18 18 18 18 18 18 17 18 19 20 20 20 21 21 21 22 23 23 21 20 18 17 17 17 17 17 17 17 17 17 17 17
24 23 23 22 21 22 22 22 21 20 20 19 18 18 18 18 18 19 19 19 19 19 19 19 20 19 19 19 20 20 19 19 19 19 19 19 19 19 19 19 19 19 19 19 19 19 19 19 19 19 18 18 18 18 18 18 18 18 18 18 19 20 20 20 21 21 22 22 23 24 23 22 20 18 17 17 17 17 17 18 17 17 17 17 17
24 24 23 21 21 22 22 21 20 20 20 19 18 18 18 18 19 19 19 19 19 19 19 19 19 19 19 19 20 19 19 19 19 19 19 19 19 19 19 19 19 19 19 19 19 19 19 19 19 19 19 19 18 18 18 18 18 18 18 18 19 20 20 21 21 22 23 23 24 23 23 22 20 19 17 17 17 17 17 18 18 17 17 17 17
25 25 23 21 20 21 21 20 19 19 20 19 18 19 18 18 19 19 19 19 19 19 19 20 20 19 19 19 20 19 19 19 19 19 19 19 19 19 19 19 19 19 19 19 19 18 18 19 19 19 19 19 19 19 18 18 18 18 18 19 19 20 21 21 21 22 23 23 23 22 22 22 20 19 17 17 17 17 17 18 18 17 17 16 16
25 24 22 20 20 21 20 19 19 19 19 19 18 19 18 18 19 19 19 19 19 20 20 20 20 19 19 19 19 19 19 19 19 19 19 19 19 19 19 19 19 19 19 18 18 18 18 19 19 19 19 19 19 19 19 19 19 18 19 19 19 20 20 21 21 22 24 23 23 22 21 21 19 18 17 17 17 17 17 17 17 16 16 16 16
25 23 21 20 19 20 20 19 19 19 19 18 18 18 18 19 19 19 19 19 20 20 19 19 19 19 19 19 19 19 19 19 19 19 19 19 19 19 19 19 19 19 18 18 18 18 19 19 20 19 19 19 19 19 19 19 19 18 19 19 19 19 20 21 21 23 24 23 23 23 22 20 19 17 17 17 17 17 17 17 16 16 16 16 16
23 21 20 20 19 19 20 19 19 19 19 18 18 19 19 19 19 19 19 19 20 20 19 19 19 19 19 19 19 19 19 19 19 19 19 19 19 19 19 19 19 19 19 19 19 19 19 20 20 19 19 19 19 20 19 19 19 19 19 19 19 20 21 21 22 23 24 23 23 22 21 20 18 17 17 17 17 16 16 16 16 16 16 16 15
22 21 21 20 19 19 19 19 19 18 18 18 18 19 19 19 19 19 19 19 19 19 19 19 19 19 19 19 19 19 19 19 19 19 19 19 20 20 20 20 19 19 19 19 19 19 19 20 20 19 19 19 19 19 19 19 19 19 19 19 20 20 21 21 23 24 23 23 23 23 21 19 18 17 17 17 16 16 16 16 16 15 15 15 15
22 22 21 20 19 18 18 19 19 18 18 18 18 18 18 19 19 19 19 19 19 19 19 19 19 19 19 19 19 19 19 19 19 19 20 20 20 20 20 20 20 19 19 19 19 19 19 20 19 19 20 19 19 19 20 19 19 19 19 19 20 20 20 21 23 24 23 23 23 23 21 19 19 17 17 17 16 16 16 16 16 15 15 15 15
22 22 21 20 19 19 19 18 19 18 18 18 18 18 18 19 19 19 19 19 19 19 19 19 19 19 19 19 19 19 19 19 20 20 20 20 20 20 19 19 19 19 19 19 19 20 19 19 19 19 20 20 20 20 20 19 19 19 19 19 19 20 20 21 22 24 24 23 23 23 21 19 19 17 16 16 16 16 16 16 16 16 15 15 15
22 22 22 21 20 20 19 19 19 18 18 18 18 18 19 19 19 19 19 19 19 19 19 19 19 19 19 19 19 19 19 19 20 20 20 20 20 19 19 19 19 19 19 19 19 19 19 19 19 19 20 20 20 20 20 19 19 19 19 19 20 20 21 21 22 24 24 23 23 23 20 19 19 18 16 16 16 16 16 16 16 16 15 15 15
23 23 22 21 21 21 20 19 19 19 18 18 18 19 19 19 19 19 19 19 19 19 19 19 19 19 19 19 19 19 19 19 20 20 20 20 20 19 18 18 18 19 19 19 19 19 19 19 19 19 20 20 20 20 20 20 19 19 19 20 20 21 21 22 22 24 23 23 23 22 20 20 19 18 16 16 16 16 16 16 16 16 15 15 15
23 23 23 22 22 21 20 19 19 19 19 19 18 18 18 19 19 19 19 19 19 19 19 19 19 19 19 20 19 20 19 20 20 19 20 20 19 18 18 17 18 18 18 18 19 19 19 19 19 19 20 20 20 20 20 20 19 19 19 20 20 21 21 22 23 24 23 23 23 21 21 21 19 17 16 16 16 16 16 16 16 15 15 15 15
23 23 23 23 22 21 21 20 20 20 19 19 19 19 18 19 19 19 19 19 19 19 19 19 19 20 20 20 19 20 19 19 19 19 19 19 19 18 18 17 17 18 18 18 19 19 19 19 19 19 20 20 20 20 20 20 20 19 20 20 20 20 21 22 23 24 24 23 22 21 21 21 19 17 17 17 16 16 16 16 15 15 15 15 15
23 23 23 23 22 21 21 21 21 20 20 19 19 19 18 18 19 19 19 19 19 19 19 19 19 20 20 20 19 19 19 19 19 19 19 19 19 19 18 18 18 18 18 19 19 19 19 19 19 19 20 20 20 20 20 20 20 20 20 20 20 20 21 22 23 23 24 23 22 21 21 20 18 17 17 17 16 16 16 16 15 15 15 15 15
24 23 23 23 22 22 22 21 21 20 20 19 19 19 18 19 19 19 19 19 20 20 20 20 19 20 19 19 19 19 20 19 19 19 19 18 19 19 19 19 18 18 19 19 19 19 19 19 19 20 20 20 20 20 20 20 20 20 20 21 20 21 22 22 23 23 24 23 22 21 21 20 18 16 17 17 16 16 16 16 15 15 15 15 15
24 24 23 23 22 22 22 21 21 21 20 20 19 19 19 20 20 19 20 20 20 20 20 20 20 20 20 19 19 20 20 19 19 20 19 19 19 19 19 19 19 19 19 19 20 19 19 19 19 20 20 20 20 20 20 20 20 20 20 21 21 21 22 22 22 23 24 23 22 21 21 20 19 17 17 17 16 16 16 16 16 15 15 15 15
24 24 23 22 22 22 22 21 21 21 21 21 20 20 20 21 21 20 20 20 20 20 20 20 20 20 20 20 20 20 20 20 20 20 19 19 19 19 19 19 19 19 19 19 19 20 20 20 20 20 20 20 20 21 22 22 21 20 20 20 21 22 22 22 23 23 23 22 21 21 20 20 19 18 17 16 16 16 16 16 16 16 15 15 15
24 24 23 22 22 22 21 21 21 22 21 21 21 21 21 21 22 21 21 20 20 20 21 20 20 20 20 20 20 20 20 21 21 20 20 20 20 19 19 19 19 20 20 19 19 20 20 20 20 20 20 21 22 23 23 23 22 21 21 21 22 22 22 23 23 23 23 22 21 21 21 20 20 19 18 16 16 16 16 16 16 16 15 15 15
24 23 23 22 22 22 22 21 21 22 22 22 22 21 22 22 22 22 21 21 21 21 21 20 20 20 21 20 20 20 21 21 21 21 21 21 21 21 21 20 20 21 21 21 21 21 21 21 21 21 21 22 23 23 23 23 23 22 22 22 23 23 23 23 23 23 23 22 21 21 21 20 20 20 18 17 17 16 16 16 16 16 16 15 15
24 23 23 22 22 21 21 21 21 22 22 22 21 21 22 22 22 22 21 22 22 21 21 21 21 20 20 20 20 21 21 21 21 21 21 21 21 21 21 21 22 22 21 22 22 21 22 22 22 22 22 22 23 23 23 23 22 23 23 23 23 23 23 23 23 23 23 22 21 21 21 20 20 20 19 18 17 16 16 16 16 16 16 15 15
23 23 22 22 22 21 21 21 21 21 21 21 21 21 22 22 21 21 21 21 22 22 22 21 21 20 20 20 20 21 21 20 20 20 20 21 20 20 21 21 21 21 21 21 22 21 22 22 22 22 22 23 23 23 23 23 23 22 23 23 23 23 23 23 23 23 23 22 22 21 21 20 20 20 20 19 18 17 16 16 16 16 15 15 15
23 23 22 22 21 21 21 21 21 21 21 21 21 22 21 21 21 21 21 21 21 22 21 21 21 20 20 20 20 20 20 20 20 20 20 20 20 20 20 20 20 21 21 21 21 21 22 22 22 22 22 23 23 23 23 23 23 22 22 23 22 22 22 22 22 22 23 23 22 21 21 21 20 20 20 19 18 17 17 16 16 16 16 15 15
23 23 22 22 21 21 21 21 21 21 21 21 22 21 21 21 21 21 21 21 21 21 21 21 21 20 20 19 19 19 19 20 20 19 20 19 19 20 20 20 20 20 20 20 20 21 21 21 21 21 22 23 23 23 23 23 24 23 22 22 22 22 22 22 22 22 22 23 22 22 21 21 20 20 20 19 19 18 17 17 16 16 16 16 16
23 23 22 22 21 21 21 21 21 21 21 21 21 21 21 21 21 21 20 20 20 20 20 20 20 20 19 19 19 19 19 19 19 19 19 19 19 20 20 20 20 20 20 21 20 20 20 20 21 21 21 22 22 23 23 23 23 23 23 22 21 21 21 22 22 22 22 22 22 21 21 21 20 20 20 19 19 19 18 17 16 16 16 16 16
22 22 22 21 21 21 21 21 21 21 21 21 21 21 21 20 21 20 20 20 20 20 20 20 19 19 19 19 19 19 19 19 19 19 20 20 20 20 20 20 20 20 20 20 20 20 20 20 20 20 20 21 21 22 23 23 23 23 24 23 22 21 21 21 21 21 21 21 22 21 21 20 20 20 20 20 19 19 18 18 17 16 16 16 16
22 22 22 21 21 21 21 20 20 20 21 21 21 21 20 20 20 20 20 20 20 19 19 19 19 19 19 19 19 19 19 19 19 19 20 20 20 20 20 20 20 20 20 20 20 20 20 20 20 20 20 20 21 22 22 22 23 23 23 23 23 22 21 21 21 21 21 22 21 21 21 21 20 20 20 20 19 19 19 18 17 17 16 16 17
22 22 21 21 21 21 21 20 20 20 20 20 20 20 20 20 20 20 20 19 19 19 19 19 19 19 19 19 19 19 19 19 19 19 20 21 20 20 20 20 20 19 19 19 19 20 20 20 20 20 20 20 21 21 21 21 22 22 22 22 23 22 22 22 21 21 21 21 21 21 21 21 20 19 19 19 19 19 19 19 18 17 17 17 17
21 21 21 20 20 21 20 20 20 20 20 20 20 20 20 20 20 19 19 19 19 19 19 19 19 19 19 19 19 19 19 19 20 19 20 20 21 20 20 20 20 19 20 19 19 20 20 20 20 20 20 21 21 21 21 20 20 21 21 21 22 22 22 22 22 21 21 21 21 21 21 20 20 20 20 19 19 19 19 19 19 18 18 17 17
21 21 21 20 20 20 20 20 20 20 20 19 19 19 19 19 19 19 19 19 19 19 19 19 20 20 20 20 19 19 19 19 20 20 20 20 21 21 21 20 19 19 20 19 19 20 20 20 20 20 20 20 21 21 21 20 20 20 20 20 21 21 21 21 21 21 21 21 20 21 21 21 20 20 20 19 19 19 19 19 19 19 18 17 17
20 20 21 20 20 20 20 19 19 19 19 19 19 19 18 19 19 19 19 19 19 19 20 20 20 20 20 20 19 19 20 19 19 20 19 20 21 21 21 20 19 19 19 19 19 20 20 20 20 20 20 20 20 21 21 20 20 20 19 20 20 20 20 20 20 20 20 20 20 21 21 21 21 20 20 19 19 19 19 19 19 18 18 18 17
20 20 20 20 19 19 18 18 18 18 19 18 18 18 18 19 19 19 19 19 19 20 20 20 20 20 20 20 19 19 19 19 19 20 19 20 20 21 20 20 20 20 19 19 20 20 19 19 19 19 19 19 20 20 20 20 20 20 20 20 20 19 19 19 20 20 19 20 20 20 20 20 21 21 20 20 19 19 18 19 19 18 18 18 17
19 19 19 19 19 18 18 17 17 18 18 18 19 19 19 19 18 19 19 19 20 20 20 20 20 20 20 20 20 19 19 20 20 19 19 20 20 20 20 20 20 20 20 20 20 20 19 19 19 19 19 19 20 20 20 20 20 20 20 20 19 19 19 19 19 19 19 20 20 20 20 20 20 21 20 20 20 19 19 18 18 18 17 17 17
18 18 18 18 18 17 17 17 17 18 18 18 18 18 18 18 18 18 18 19 20 19 19 20 19 19 19 19 19 19 19 20 19 19 19 19 20 20 20 19 20 20 19 19 19 19 19 19 19 19 19 20 20 20 20 20 19 19 19 20 19 19 19 19 19 19 20 20 19 19 19 20 20 20 20 20 19 19 19 18 18 18 18 18 17
17 17 17 18 16 16 17 17 18 18 18 18 18 18 18 17 17 18 18 19 19 19 19 19 19 19 19 20 19 19 19 19 19 19 19 19 19 19 19 19 19 19 19 19 18 18 19 19 19 19 19 19 20 20 20 19 19 20 20 20 20 20 20 19 19 19 19 19 19 19 19 19 19 20 20 20 19 19 19 19 18 18 17 17 18
17 17 17 17 16 16 16 17 18 18 17 17 17 18 18 18 18 19 19 19 19 19 19 19 19 19 19 19 19 19 19 19 19 19 19 19 19 19 19 19 19 19 19 18 18 18 18 18 19 19 19 19 19 19 19 19 20 20 20 20 21 21 20 19 19 19 19 19 19 19 19 19 19 20 20 20 20 19 19 19 19 18 17 17 17
16 16 17 17 16 16 16 17 18 17 17 17 17 18 18 19 19 19 19 19 19 18 19 19 19 19 19 19 19 19 19 19 19 19 19 19 19 19 19 18 18 18 18 18 18 18 18 18 19 18 18 19 19 20 19 19 20 20 20 20 21 21 21 19 19 19 19 19 19 19 19 19 19 19 19 19 20 20 19 19 19 18 17 17 18
16 16 16 16 16 16 16 17 17 17 17 17 18 18 18 19 19 19 19 19 19 19 19 19 18 19 19 18 18 19 19 19 19 19 19 18 18 18 18 18 18 18 18 18 18 18 18 18 18 18 18 18 20 20 19 19 19 19 20 20 21 21 21 21 20 20 20 19 19 19 18 19 19 18 18 18 19 19 19 18 18 18 17 17 17
16 16 16 16 17 17 17 17 17 17 17 17 18 18 19 19 19 19 19 19 19 19 19 19 18 18 18 18 18 18 18 18 18 18 18 18 17 17 17 18 18 18 18 18 18 18 18 18 18 18 18 18 19 20 20 19 19 19 19 19 20 21 21 21 20 21 21 20 19 19 19 19 18 18 18 18 18 18 18 18 18 17 17 17 17
17 17 17 17 18 18 17 17 17 17 17 18 19 19 19 19 19 20 19 19 19 19 19 18 18 18 18 17 17 17 17 17 17 18 17 17 17 17 17 17 17 17 17 18 17 17 17 17 17 18 18 18 18 19 20 20 19 19 19 18 19 19 19 20 19 20 21 21 21 20 20 19 18 18 18 18 18 17 18 18 18 17 17 17 17
17 17 17 17 17 17 17 18 18 18 18 19 19 19 19 19 19 19 19 19 18 18 18 18 18 18 17 17 17 16 17 17 17 17 17 16 16 16 16 16 17 17 17 17 17 17 17 17 17 17 17 17 18 18 19 20 20 19 19 19 18 18 18 18 18 19 20 20 21 21 21 20 19 18 18 18 18 18 18 18 18 18 18 17 17
17 16 17 17 18 18 18 18 18 18 18 18 19 19 19 19 19 19 18 18 18 18 18 18 18 17 17 17 16 16 16 16 16 16 16 16 15 15 15 16 16 16 16 16 16 16 16 16 16 16 16 16 16 17 17 18 19 19 19 19 19 19 19 18 18 18 18 19 20 21 21 21 20 19 18 18 19 18 18 18 17 18 18 18 18
17 17 17 17 17 18 18 18 18 18 18 18 18 18 18 18 19 19 18 18 18 18 17 17 17 17 16 16 16 15 15 15 15 15 15 15 15 15 15 15 15 15 15 15 15 15 15 15 15 15 15 16 16 16 16 17 17 18 18 18 18 19 19 19 19 19 19 19 19 20 21 21 20 20 19 19 19 19 19 18 17 18 18 18 18
17 17 17 17 17 18 18 17 17 17 17 17 17 18 18 18 18 18 18 18 17 17 17 17 16 16 16 16 15 15 15 15 15 14 14 14 14 14 15 15 14 14 14 14 15 15 14 15 15 15 15 15 15 15 15 16 16 17 17 17 18 18 18 19 19 19 19 19 18 19 21 21 21 20 20 19 19 19 19 18 18 18 18 18 18
17 17 17 17 18 17 17 17 17 17 17 17 17 17 17 17 17 17 17 17 16 16 16 16 16 16 16 16 16 15 15 15 14 14 13 13 13 13 14 14 14 14 14 14 14 14 14 14 14 15 14 14 14 14 15 15 15 16 16 16 16 17 17 17 18 18 18 18 18 18 20 20 20 21 21 20 20 19 19 19 18 18 18 18 18
Height
778 779 782 783 786 787 790 790 792 793 794 795 796 798 799 802 803 804 805 806 806 807 808 808 809 809 810 810 810 810 811 811 811 811 811 812 812 812 812 812 812 813 814 814 815 814 815 814 815 815 814 815 814 814 814 814 813 813 813 813 813 813 813 813 813 813 813 813 814 814 814 814 815 815 815 815 815 815 815 815 816 816 815 815 815
777 781 782 784 787 788 791 791 793 794 795 796 797 799 800 803 804 805 806 807 808 808 809 809 810 810 811 811 811 811 812 812 812 813 813 813 813 813 813 813 813 814 814 816 816 816 816 816 816 816 816 816 815 815 815 815 814 814 814 814 815 815 815 815 815 815 815 814 815 815 815 815 815 816 816 816 816 816 816 816 816 817 816 816 816
777 783 783 786 788 789 792 792 794 794 796 797 798 800 801 804 805 806 807 808 809 809 810 810 811 812 812 812 812 812 813 813 814 814 814 814 815 814 815 815 815 815 815 816 817 817 817 817 818 817 817 817 817 816 816 816 816 816 816 816 816 816 816 816 816 816 816 816 815 815 816 816 817 817 817 817 817 817 817 817 817 817 817 817 817
779 783 784 787 788 790 792 793 795 795 797 797 799 801 802 805 806 808 808 809 810 811 811 812 812 812 813 813 813 814 814 815 815 815 815 816 816 816 816 817 817 817 816 817 818 818 819 819 819 819 819 818 818 818 817 817 817 817 817 817 817 817 817 817 818 817 817 817 816 817 818 818 818 818 818 818 818 818 818 818 818 818 818 818 818
781 784 785 788 789 791 792 794 795 796 798 798 800 802 804 805 807 808 809 810 811 812 812 813 813 813 814 814 814 814 815 816 816 816 816 817 817 817 818 818 818 819 818 819 819 820 820 820 820 820 820 820 819 819 819 818 818 818 818 818 818 818 818 819 819 818 818 818 818 819 820 820 820 819 819 819 819 819 819 820 820 819 819 819 818
783 785 787 789 791 792 793 795 796 797 798 800 801 803 805 806 808 809 810 811 812 813 813 814 814 815 815 815 815 815 816 816 817 817 817 818 818 819 819 819 819 820 820 820 820 821 821 821 821 821 821 821 821 820 820 819 819 819 819 819 819 819 820 820 819 819 819 819 819 821 822 822 822 821 821 821 820 820 820 820 821 821 820 820 820
783 786 788 789 791 792 794 795 797 799 799 801 802 804 806 807 809 810 811 812 813 814 814 815 815 816 816 816 816 817 817 817 818 818 819 819 819 820 820 820 821 821 821 821 822 822 822 822 822 822 822 822 822 821 821 821 820 820 820 820 820 821 821 821 820 820 820 820 821 823 823 823 823 822 822 822 822 822 822 821 821 821 821 822 821
784 787 789 790 792 792 795 796 798 800 800 802 803 805 806 808 810 811 812 813 814 815 815 816 816 817 817 817 817 818 818 819 819 819 820 820 820 821 821 822 821 822 822 822 823 823 823 823 823 824 824 823 823 822 822 821 821 821 821 821 822 822 822 822 821 821 820 821 823 824 824 824 824 824 824 824 824 824 823 823 822 822 822 822 822
785 787 789 791 792 793 795 797 799 800 801 803 804 805 807 809 810 812 813 814 815 816 816 817 817 818 818 818 818 819 819 820 820 821 821 821 822 822 822 822 822 823 823 823 824 824 824 824 824 824 825 824 824 823 823 822 822 822 822 822 822 823 823 822 822 822 822 823 824 824 824 825 825 825 825 825 825 825 824 824 823 823 823 822 822
785 786 790 792 793 795 796 798 800 801 803 804 805 806 808 810 811 813 814 815 816 816 817 818 818 818 819 819 819 820 820 821 821 822 822 822 823 822 823 823 823 824 824 824 824 825 825 825 825 825 825 825 825 824 823 823 823 823 823 823 823 824 823 823 822 822 824 825 825 825 825 825 826 826 826 826 825 825 825 825 824 824 824 823 823
785 787 790 793 795 795 797 799 801 802 803 805 806 807 809 811 812 814 815 816 817 817 818 818 819 819 820 820 820 821 821 822 823 823 823 823 823 823 824 823 824 824 825 825 825 826 826 826 826 826 826 825 825 824 824 824 824 824 824 824 824 824 823 823 822 824 826 826 826 826 826 826 826 826 826 826 826 826 826 825 825 825 825 824 824
786 788 790 794 796 796 798 800 802 804 804 806 807 809 810 812 814 815 816 817 817 818 818 819 820 820 820 821 822 822 823 823 824 824 824 824 824 824 824 824 824 825 825 825 826 826 826 827 827 827 827 826 826 825 825 825 825 825 825 824 824 824 824 824 823 825 827 826 827 827 827 827 827 826 826 826 826 826 826 826 826 826 826 825 825
787 789 791 794 797 798 799 801 803 804 805 807 808 810 812 813 815 815 817 817 818 819 819 820 820 821 821 822 823 823 824 824 825 825 825 825 825 825 825 825 825 825 825 825 826 826 827 827 828 828 828 828 827 827 826 826 826 825 825 825 825 824 824 824 824 826 828 827 828 828 828 828 827 827 827 827 827 827 826 826 826 826 826 826 825
787 790 793 795 798 800 800 803 804 805 807 808 809 811 812 814 815 816 817 818 819 820 820 821 821 822 822 823 824 824 825 825 826 826 826 826 826 826 826 826 825 825 825 826 826 827 828 828 828 828 829 829 828 828 827 827 827 826 826 826 825 825 825 825 826 828 828 828 828 829 829 828 827 827 827 827 827 827 827 827 826 826 826 826 826
789 791 794 797 799 801 802 804 805 806 807 809 810 811 813 814 816 817 818 819 820 820 821 822 822 823 823 824 824 825 826 826 826 826 827 827 827 827 826 826 826 826 826 826 827 827 828 828 829 829 829 829 829 829 829 829 828 828 827 826 826 825 825 824 827 829 828 829 829 829 829 828 828 828 828 828 828 828 828 827 827 827 827 827 827
790 792 795 798 800 802 804 806 806 807 808 810 811 812 814 815 817 818 819 820 820 821 822 823 823 824 824 825 825 826 826 826 827 827 827 827 827 827 827 827 827 827 826 827 827 828 829 829 830 830 830 830 830 830 830 830 829 829 828 827 827 826 826 825 827 829 829 829 829 829 829 828 828 828 829 829 829 829 829 828 828 828 827 827 827
791 793 795 798 801 803 805 807 807 808 810 811 812 813 815 816 818 819 819 821 821 822 822 824 824 824 825 825 826 826 827 827 828 828 828 828 828 828 828 828 827 827 827 827 828 828 829 830 830 831 831 831 831 831 831 831 830 830 829 828 828 827 827 826 827 829 829 829 829 830 830 828 828 829 829 829 830 829 830 829 829 829 828 828 828
792 794 795 798 800 803 805 807 808 809 811 812 813 814 815 817 818 819 820 821 822 823 823 824 825 825 826 826 827 827 827 828 828 828 828 828 828 828 828 828 828 828 827 828 828 829 830 830 831 831 831 832 831 832 832 832 831 831 830 830 829 829 829 827 827 829 830 829 829 830 829 829 828 828 829 829 830 830 830 830 830 829 829 829 828
792 794 796 798 800 803 804 806 808 809 811 813 815 815 816 818 819 820 821 822 822 823 824 825 825 826 826 827 827 827 828 828 828 829 829 829 829 829 829 829 829 828 828 828 829 830 830 831 832 832 832 832 832 832 832 832 832 832 832 831 830 830 829 828 828 829 830 829 830 829 828 828 828 828 829 829 829 830 830 830 830 830 830 829 829
793 794 796 799 800 802 804 806 808 809 811 813 815 816 817 818 819 821 821 822 823 824 825 825 826 827 827 827 828 828 828 828 829 829 829 829 829 830 829 829 830 829 829 829 830 830 831 832 832 832 832 833 833 833 832 833 833 832 832 831 831 830 829 829 829 830 829 830 830 829 828 828 828 828 828 829 829 829 829 829 829 830 830 830 830
793 794 796 799 800 802 803 806 807 809 811 812 815 816 818 819 820 821 821 823 823 824 825 826 826 827 827 828 828 828 829 829 829 830 830 830 830 830 830 830 830 830 830 830 831 831 832 832 832 833 833 833 833 833 833 833 833 833 832 832 831 830 830 831 830 830 830 830 830 829 829 829 828 828 829 829 829 829 829 828 829 829 830 829 830
792 794 796 799 800 802 803 805 807 809 811 812 814 816 818 819 820 821 822 823 823 824 825 825 826 826 828 828 829 829 829 830 830 830 830 830 830 830 830 830 830 830 830 830 831 832 832 833 833 833 833 833 833 833 833 832 832 832 832 832 831 830 831 832 830 830 830 830 830 829 830 829 828 829 829 829 829 828 828 828 828 828 828 829 829
791 793 796 799 800 802 803 805 807 809 811 812 814 816 818 819 820 821 821 823 823 824 825 826 826 827 828 828 829 830 830 830 830 831 831 831 830 830 830 830 831 831 830 831 831 832 832 833 833 833 833 833 833 833 833 832 832 832 832 832 831 831 831 831 830 830 830 830 829 829 829 829 828 828 829 828 828 828 827 828 828 828 827 828 828
791 793 795 799 800 802 804 805 807 809 811 812 814 816 817 819 820 821 821 822 823 824 825 825 826 827 828 828 829 830 830 830 830 831 831 831 831 830 830 830 831 831 831 831 831 832 832 833 833 833 833 833 832 832 832 832 832 832 832 832 831 831 831 830 830 829 829 829 829 829 829 828 828 827 828 827 827 827 827 827 827 828 827 827 827
790 793 795 798 800 802 804 806 807 809 811 812 814 815 817 818 819 820 821 822 823 824 824 825 826 827 828 829 829 829 830 830 831 831 831 831 831 831 831 831 831 831 831 831 831 832 832 832 832 832 833 833 832 832 831 831 831 831 831 831 831 830 830 830 829 829 829 828 828 828 828 827 827 827 827 827 827 826 826 827 827 827 826 826 826
791 793 795 798 800 802 804 806 808 809 811 811 813 815 816 817 818 819 820 821 822 823 824 825 826 826 827 828 829 829 830 830 830 830 830 830 830 830 831 831 831 832 832 832 832 832 832 832 832 832 832 832 831 831 831 830 830 830 830 830 830 830 830 829 829 828 828 828 827 827 827 826 826 826 826 826 826 826 826 826 827 826 825 826 826
791 793 795 798 800 802 804 806 807 809 810 811 813 814 815 816 817 819 820 821 821 823 824 825 826 826 827 828 828 829 829 830 830 830 830 830 830 830 831 832 832 832 832 832 833 833 832 832 832 831 831 831 830 830 830 830 830 829 829 829 829 829 829 828 828 828 828 827 826 826 826 825 825 825 825 825 825 825 825 826 826 826 825 825 825
790 793 795 797 799 802 804 805 807 808 810 811 812 813 814 816 817 818 819 820 821 822 823 824 825 826 827 827 828 828 829 829 829 830 830 830 831 831 831 832 832 831 831 832 832 832 832 831 831 831 830 830 829 829 828 828 828 828 828 828 828 828 828 827 827 827 827 826 825 825 825 825 825 824 824 824 824 824 824 825 826 826 825 824 824
790 792 795 797 800 802 803 805 806 807 809 810 811 812 814 815 816 817 818 819 820 821 823 824 825 825 826 826 827 828 828 829 829 830 830 830 831 831 831 831 832 831 831 831 831 832 832 831 831 830 830 829 828 828 827 827 827 827 828 827 827 827 827 827 826 826 826 825 824 823 824 824 824 824 824 824 823 823 824 824 825 825 825 825 824
790 792 795 798 800 802 804 805 806 807 808 809 810 811 813 814 815 816 817 819 819 821 822 823 824 824 825 825 826 827 827 828 829 830 830 831 831 831 831 831 832 831 831 831 831 832 832 831 831 830 829 828 827 827 826 826 826 826 826 826 827 826 826 826 825 825 824 824 823 822 822 823 823 823 823 823 823 823 823 823 824 824 824 825 825
790 793 795 798 800 802 804 805 806 807 808 809 810 811 812 813 814 815 816 817 819 820 821 822 822 823 824 824 825 826 827 827 828 829 830 831 831 830 830 830 831 831 831 831 831 832 832 831 830 830 830 828 828 826 825 825 825 824 824 825 825 825 825 824 824 823 823 823 822 821 821 822 822 822 822 823 822 822 822 823 823 823 823 824 824
791 793 795 798 800 802 803 805 806 807 808 809 809 810 811 812 813 814 815 817 818 819 820 821 821 822 822 823 824 825 826 827 828 829 829 830 830 829 829 830 830 831 831 830 830 830 831 831 829 830 830 829 828 826 825 825 824 823 822 823 823 824 824 823 823 822 822 822 821 821 820 820 821 821 821 822 822 822 821 822 822 822 822 822 823
792 794 796 798 800 802 803 804 806 807 807 808 809 810 811 811 813 814 816 817 818 819 819 821 820 821 822 822 823 825 826 826 827 828 829 829 829 829 829 830 830 830 830 830 829 829 829 829 829 829 828 827 827 826 825 824 824 823 822 821 821 821 822 822 822 821 820 820 820 820 819 819 819 819 820 820 821 820 820 820 820 820 821 821 821
792 795 797 799 800 801 803 804 806 807 808 809 809 810 811 812 813 814 816 817 818 819 820 821 821 820 821 822 823 824 826 826 827 828 828 829 829 829 830 830 830 829 829 829 829 828 828 828 828 827 827 826 826 825 824 824 823 822 821 821 820 820 819 820 820 819 819 818 818 818 818 818 817 818 818 818 818 818 818 818 818 818 819 820 820
792 795 797 799 800 801 803 804 806 808 809 810 810 811 812 813 814 815 816 816 816 818 820 821 821 820 820 822 823 825 826 827 828 828 829 829 829 829 830 830 829 829 829 829 828 828 828 827 827 827 826 825 824 823 823 823 823 822 821 821 819 819 818 818 818 818 817 816 816 815 815 816 816 815 815 815 815 815 816 815 815 815 816 818 819
793 795 797 798 800 801 803 805 807 809 810 811 811 813 814 814 815 815 815 816 816 818 820 820 820 820 820 822 824 825 826 827 828 828 829 829 829 829 830 830 829 829 829 828 828 827 827 827 826 826 825 824 823 822 822 822 822 821 821 820 819 818 818 817 816 815 815 814 813 813 813 813 813 813 812 813 813 813 813 813 813 813 814 815 817
793 794 796 798 801 803 805 807 809 810 811 812 814 815 816 816 815 816 816 817 817 818 819 819 819 820 821 823 824 825 826 827 828 828 829 829 829 829 829 829 829 828 828 828 828 827 827 826 826 826 825 824 823 822 821 821 821 820 820 819 818 817 817 816 815 814 814 813 811 810 810 810 810 810 810 811 810 810 810 810 811 811 812 813 814
793 795 798 801 804 806 809 811 812 812 812 814 816 817 817 816 815 815 816 816 817 817 818 818 819 821 822 823 825 826 826 827 828 828 828 829 829 829 829 829 829 828 828 828 827 827 827 827 826 825 825 824 823 822 821 820 820 819 818 817 817 816 815 814 814 813 812 812 810 808 807 807 807 807 807 808 807 807 807 807 808 809 810 811 812
797 800 803 804 805 809 812 814 815 814 814 815 816 816 816 816 815 815 816 816 817 817 818 818 819 821 822 824 825 826 827 827 828 828 828 829 829 829 829 828 828 828 828 828 827 827 827 827 826 826 825 824 823 822 821 820 819 818 817 816 815 815 813 813 813 812 810 810 809 808 806 806 805 805 805 805 805 805 805 805 806 807 808 809 810
803 804 806 806 808 811 814 816 817 816 814 814 815 815 815 815 816 818 818 817 817 817 818 819 820 822 823 825 826 826 827 828 828 828 829 829 829 829 829 828 828 828 828 828 828 827 827 827 826 825 825 824 823 822 820 819 818 816 815 814 813 812 812 812 811 809 808 807 807 807 807 805 804 804 804 804 804 804 804 803 803 805 806 806 807
806 807 807 808 811 814 815 816 816 816 815 815 816 816 814 815 817 818 817 817 817 817 818 819 821 823 824 825 826 827 827 828 828 829 829 829 829 829 829 828 828 828 828 828 828 828 827 826 826 825 825 823 822 821 820 819 817 815 813 812 811 810 810 810 809 807 806 804 805 805 805 804 803 803 803 803 803 803 803 802 802 803 803 804 805
808 809 808 808 811 815 816 816 816 817 818 818 817 816 815 816 816 815 815 816 817 818 819 821 822 824 825 826 827 827 828 828 829 829 829 829 829 829 829 828 828 828 828 827 828 827 827 826 826 825 825 824 822 821 820 819 817 815 813 811 809 808 807 807 807 805 804 803 803 803 802 802 802 802 802 802 802 802 802 801 801 800 801 802 803
811 811 810 810 813 816 817 817 816 818 821 821 818 816 816 815 814 814 814 815 817 819 821 822 823 824 825 826 827 828 828 829 829 830 830 830 830 829 829 829 829 829 828 828 827 827 827 826 826 826 825 824 822 820 820 818 817 815 813 811 809 807 806 806 806 805 803 802 802 802 801 800 801 800 801 801 801 800 800 800 800 799 799 800 801
812 813 813 814 815 816 817 816 816 819 822 821 817 816 815 814 813 813 814 815 817 819 821 822 823 824 825 826 827 828 829 830 830 830 831 830 830 830 830 830 829 829 829 828 828 828 827 826 826 826 824 823 821 820 819 818 818 816 814 812 809 807 806 806 804 803 802 801 801 801 800 799 799 799 799 799 799 799 799 798 798 797 796 797 798
812 814 815 815 815 815 817 817 818 819 820 818 816 815 814 813 813 813 814 816 817 819 820 822 823 824 826 827 828 829 830 831 831 831 831 831 831 831 830 830 830 830 829 829 828 828 827 826 826 825 824 823 821 820 819 818 818 817 816 814 811 809 807 805 804 802 800 801 800 800 799 798 798 798 798 797 797 797 797 796 796 795 794 794 795
812 814 816 817 817 818 819 820 820 820 819 817 816 815 814 813 813 813 815 816 818 820 821 823 824 825 827 828 829 830 831 832 832 832 832 832 832 832 831 831 831 830 830 829 829 828 827 827 826 825 824 824 822 820 818 817 817 816 816 815 814 812 809 807 806 803 799 798 799 798 797 797 797 797 796 794 794 795 794 793 793 793 793 793 793
814 815 818 820 821 821 821 821 820 819 818 817 816 815 814 814 814 815 816 818 820 821 823 824 826 827 829 830 831 832 832 833 833 833 833 833 833 832 832 832 832 831 831 830 829 829 828 827 827 826 825 824 823 821 819 817 816 815 815 814 814 813 811 809 808 805 801 797 795 796 796 795 795 795 793 792 791 792 791 790 790 790 791 791 791
815 816 819 821 821 820 820 819 819 818 817 816 816 815 815 815 815 817 818 819 821 823 824 825 827 828 830 831 832 833 834 834 835 835 835 834 834 834 833 833 833 833 832 831 831 830 830 829 828 827 826 825 824 822 820 819 817 816 815 814 813 812 811 810 808 807 804 800 794 792 793 793 793 793 791 790 789 788 788 787 787 788 787 787 788
814 817 819 820 820 820 820 820 820 819 818 818 817 817 817 817 817 818 819 821 822 824 826 827 828 829 831 832 833 834 835 835 836 836 836 835 835 835 835 835 835 834 834 833 833 832 831 830 829 828 827 826 825 824 822 821 819 817 816 815 813 811 809 808 807 805 803 802 798 792 791 791 790 789 788 787 786 785 785 785 785 784 784 784 785
813 818 820 820 821 821 821 822 821 821 820 820 819 819 818 819 819 820 821 822 824 825 827 828 829 831 832 833 834 835 836 836 837 837 837 837 836 836 836 836 836 836 836 835 834 834 833 831 830 829 828 827 826 825 824 822 821 819 818 817 814 813 810 808 806 805 803 802 799 794 791 790 788 786 785 784 783 782 781 782 782 781 780 781 782
813 819 821 821 822 822 822 822 821 821 821 820 820 819 820 820 821 822 822 824 825 826 828 829 830 832 833 834 835 836 837 838 838 838 838 838 837 837 837 837 837 837 837 836 836 835 834 832 831 830 829 828 827 825 824 823 822 821 820 818 817 815 814 811 808 807 805 803 801 797 793 790 787 785 783 782 780 779 778 778 778 777 777 777 779
Wind_Speed
17 20 24 22 19 17 15 14 13 13 14 15 17 16 16 15 14 14 14 14 13 13 12 12 14 14 14 13 12 11 11 12 12 12 12 12 12 13 13 14 14 14 14 14 14 14 13 13 12 11 11 11 12 12 13 13 12 12 11 11 11 11 11 10 10 10 11 12 14 14 14 14 14 13 12 12 12 12 12 12 12 12 13 14 14
19 21 23 23 20 18 16 15 14 14 14 16 18 17 16 15 14 13 13 13 12 12 13 14 15 14 13 12 11 12 12 12 12 12 11 12 12 13 14 14 15 15 15 14 13 13 12 12 11 10 11 11 11 11 11 11 11 10 10 11 11 10 9 8 9 11 12 12 13 14 14 14 14 14 13 11 11 11 12 13 13 13 14 14 15
21 20 22 24 21 19 17 15 15 14 15 16 18 18 17 16 14 14 14 13 13 13 14 15 14 13 13 12 11 12 12 11 11 11 11 12 12 13 14 14 15 15 16 15 13 13 12 12 11 11 11 12 11 11 10 9 8 8 8 9 8 8 8 9 11 14 15 14 14 15 15 15 15 14 13 11 11 10 8 9 12 14 14 14 14
21 20 23 24 21 19 17 16 15 15 16 17 19 19 18 17 15 14 14 14 14 14 15 15 14 14 13 12 12 12 11 11 10 10 11 11 12 13 15 15 15 15 16 15 13 13 12 12 12 12 13 13 13 13 12 11 8 7 7 6 6 7 8 10 13 14 15 14 15 16 13 13 13 12 12 12 12 11 11 11 13 14 14 13 13
21 21 23 23 22 20 18 17 16 16 16 18 19 19 18 17 16 15 14 15 15 16 16 15 15 14 13 13 13 12 11 11 10 11 11 12 12 13 15 15 15 15 15 14 13 13 12 11 11 12 13 13 12 13 13 13 11 8 7 6 6 8 10 14 17 16 15 13 12 11 10 11 11 11 12 13 13 12 13 12 13 13 13 14 13
21 21 22 21 21 20 19 18 17 17 18 19 19 18 18 17 16 15 15 15 15 15 16 16 15 14 14 13 12 12 11 10 11 11 12 12 12 13 14 15 15 14 14 14 12 12 11 11 10 11 11 11 11 11 11 12 12 9 8 8 8 10 13 15 16 14 13 11 9 7 8 10 10 11 12 12 12 12 12 11 11 11 12 12 12
20 20 21 20 20 21 19 18 18 18 19 19 18 18 17 17 16 15 14 15 15 15 15 15 15 15 13 12 12 11 11 11 11 12 13 13 12 13 13 14 14 13 13 13 12 11 11 10 9 10 10 9 9 9 9 10 11 9 9 8 9 13 15 15 13 10 9 6 4 7 9 10 10 11 11 11 12 12 12 11 11 11 11 11 11
20 20 20 20 21 22 20 19 19 19 19 19 18 18 17 16 16 15 15 15 15 15 15 15 14 14 12 12 11 11 11 11 12 12 13 13 13 13 13 13 13 12 12 12 11 11 10 9 8 8 8 7 7 8 8 9 9 9 8 9 12 15 15 14 12 12 11 7 6 8 9 10 11 10 10 10 10 9 10 11 12 11 10 10 10
20 20 20 19 21 22 20 19 19 19 20 19 18 18 17 17 16 16 16 16 15 14 15 14 14 14 13 12 11 11 11 12 13 13 13 13 13 13 13 13 12 12 11 11 11 10 9 8 7 7 7 7 7 7 7 7 8 9 9 11 15 16 15 13 12 12 10 7 8 9 9 10 10 10 9 9 9 8 8 9 11 10 8 8 9
20 20 20 19 22 23 21 20 19 19 20 18 18 17 17 17 17 16 15 15 14 14 14 13 13 13 13 12 12 12 12 13 13 13 13 13 13 13 12 11 11 11 10 10 10 9 8 7 7 7 8 8 8 7 6 6 7 8 9 12 15 15 14 12 11 11 7 7 9 10 11 12 11 10 9 8 8 7 7 6 6 7 8 8 8
20 20 22 20 21 22 21 20 18 19 20 19 18 17 18 17 17 17 16 15 14 14 14 13 13 13 13 13 12 13 13 13 13 13 13 12 12 11 11 10 10 10 9 9 8 8 6 6 7 7 8 8 8 8 7 7 6 7 8 11 12 12 10 8 9 7 6 9 9 9 10 11 11 9 8 7 6 5 4 4 4 5 7 7 7
20 22 24 21 19 21 21 19 18 18 19 19 18 18 17 17 17 17 16 15 14 13 13 14 13 13 13 13 13 13 13 13 13 12 11 11 10 9 9 8 8 7 7 6 6 6 5 6 7 7 8 9 8 8 8 8 7 6 7 10 11 9 8 9 7 4 7 9 8 9 9 10 9 8 7 5 5 4 3 3 3 3 4 5 6
22 24 24 22 19 19 21 19 18 18 18 18 18 18 17 17 18 18 17 14 14 13 13 14 14 14 14 14 13 13 13 13 12 11 10 9 7 7 6 6 5 5 5 4 4 5 4 5 6 7 8 8 8 8 8 8 7 7 7 9 11 11 11 11 8 4 6 7 7 8 8 8 8 7 7 6 5 5 4 3 3 4 4 4 6
23 22 22 22 19 18 20 19 18 18 18 18 18 18 16 17 18 18 17 15 14 14 14 14 14 14 14 14 14 13 12 12 11 9 8 7 6 6 6 5 4 4 4 4 4 4 4 4 6 7 7 8 8 8 8 8 7 7 7 10 12 12 10 9 7 5 6 5 6 6 8 7 5 6 6 5 5 5 5 4 4 6 5 5 6
22 21 21 21 20 18 18 18 18 18 18 18 19 18 17 16 18 18 16 14 14 14 14 14 14 14 14 13 13 12 11 10 10 9 8 7 7 7 7 6 4 4 4 4 4 4 4 5 6 7 7 8 8 7 7 7 7 7 7 9 11 8 5 3 4 4 4 4 5 6 8 4 2 4 5 4 4 5 5 5 5 6 6 6 5
21 22 22 21 21 19 17 17 17 18 19 19 19 18 17 16 18 18 15 13 14 14 14 14 14 14 13 12 12 11 11 10 9 9 8 7 7 7 8 7 5 4 4 5 5 4 5 6 7 6 7 7 8 7 7 7 7 7 7 7 8 7 6 5 3 2 3 4 4 6 6 2 1 4 4 4 5 4 4 5 5 5 5 5 5
21 22 22 22 21 20 18 16 17 18 17 17 18 17 16 17 18 16 14 14 13 14 14 14 13 13 12 12 11 10 10 10 9 8 7 7 7 8 8 8 7 5 5 6 5 6 7 7 7 6 6 6 7 6 6 6 6 6 7 7 8 8 7 7 4 1 4 3 4 6 6 2 1 3 4 4 4 3 4 5 4 4 4 4 4
20 20 22 23 21 20 19 18 18 17 16 15 16 16 17 18 17 15 14 14 13 14 13 13 13 12 12 11 10 9 9 8 7 7 7 7 7 8 8 9 8 6 5 6 7 8 9 8 7 6 5 6 6 5 5 5 5 6 7 8 10 10 9 7 4 3 4 2 3 6 3 3 2 4 4 4 3 3 4 3 2 3 4 3 3
18 18 20 21 21 21 20 20 19 17 16 15 14 14 16 17 15 14 14 13 13 13 13 13 12 11 10 9 8 8 7 6 6 6 6 7 7 7 7 8 8 6 5 6 8 10 9 8 7 6 5 5 5 4 4 4 4 4 6 10 10 8 7 5 2 2 4 2 4 4 3 5 1 6 5 3 3 3 3 1 2 4 5 4 3
17 17 18 18 20 21 20 19 18 18 17 16 15 14 15 15 14 14 14 13 13 12 12 12 11 9 8 7 7 7 7 6 6 6 5 6 7 6 6 6 6 6 5 6 9 10 9 8 7 6 4 4 4 3 3 3 3 3 5 7 6 7 7 6 2 1 2 3 4 1 5 3 3 5 4 2 2 2 1 1 2 3 3 3 3
17 17 17 17 18 19 19 18 17 18 18 18 17 15 15 14 13 14 14 13 12 12 11 11 10 9 8 8 7 8 8 7 7 7 6 6 6 5 6 6 5 6 5 6 8 9 8 7 6 5 4 3 2 2 3 4 4 3 4 4 4 5 5 3 1 1 1 3 4 1 4 1 4 5 2 1 1 1 1 1 0 1 1 2 4
17 17 16 16 16 17 17 17 17 18 18 18 17 15 15 14 13 14 14 13 12 12 11 11 10 10 9 8 8 8 7 7 7 7 6 5 4 4 5 6 6 6 6 5 6 8 8 7 6 5 4 2 1 3 3 4 5 4 4 4 3 1 1 1 2 1 1 3 4 2 4 0 4 4 2 1 1 3 5 2 1 2 2 1 3
17 17 17 15 15 16 15 16 17 17 17 17 16 15 15 13 13 13 13 13 12 12 12 11 10 10 9 7 7 7 6 6 6 5 5 4 3 3 3 4 5 6 7 7 4 5 7 7 6 5 4 2 2 5 5 5 5 4 5 3 1 3 3 2 3 2 1 3 3 3 4 1 3 4 4 3 3 4 5 1 0 3 3 2 2
17 17 17 15 14 15 15 16 16 15 15 14 14 14 14 13 13 13 13 14 13 12 12 11 10 10 8 6 6 6 5 4 4 4 4 3 2 3 3 3 4 5 5 4 4 2 4 6 6 6 6 5 6 7 7 7 7 5 6 5 5 4 4 4 4 3 1 3 4 5 3 2 1 4 4 4 4 5 5 2 2 4 4 3 3
17 16 16 15 14 15 15 15 15 13 13 13 13 13 13 13 13 13 13 13 12 11 11 10 9 8 7 5 5 5 4 3 4 4 4 5 5 4 4 3 3 3 3 3 3 1 2 7 7 8 8 8 9 8 7 7 7 7 8 7 7 5 5 6 5 4 3 4 6 6 3 3 3 3 4 5 6 6 5 4 3 5 7 6 3
16 15 16 16 15 15 15 14 13 13 12 13 13 13 13 13 13 12 12 12 10 10 9 8 8 7 6 5 5 5 4 4 5 5 5 5 5 5 5 5 5 4 2 3 5 2 3 7 7 8 9 9 8 7 7 7 7 8 8 8 7 6 7 7 5 5 4 5 8 7 5 5 4 4 4 6 7 7 5 5 5 6 10 9 4
15 15 16 16 16 14 14 14 14 13 13 13 13 13 13 12 12 12 11 11 10 10 9 8 7 6 6 5 5 5 5 4 4 4 4 4 3 3 3 3 3 3 2 3 3 3 5 5 5 7 8 9 9 9 8 9 9 9 8 8 8 7 7 8 7 7 6 7 8 8 7 7 7 6 6 6 7 9 6 5 6 7 10 9 5
16 16 16 16 16 15 15 15 14 14 14 13 13 13 12 12 12 12 12 11 10 10 9 8 8 7 6 7 6 5 5 4 4 3 2 2 2 1 2 2 1 2 2 3 2 4 5 4 6 6 7 8 9 10 10 10 10 9 9 8 8 8 8 8 8 8 8 8 9 11 10 9 9 8 8 6 8 10 8 7 8 8 8 7 6
17 17 16 16 16 16 15 15 15 15 15 14 14 13 13 13 13 13 12 11 10 10 10 9 9 8 8 8 7 5 4 4 3 2 1 2 2 2 2 1 2 2 2 3 3 4 5 5 6 7 7 8 8 10 10 11 10 9 9 9 9 9 9 9 9 10 10 10 10 13 12 11 11 10 10 8 8 10 9 10 9 8 8 7 7
18 17 16 17 16 16 15 15 15 15 15 15 14 14 14 14 14 13 13 12 11 11 11 10 10 9 9 9 7 5 5 3 2 2 2 2 2 2 2 1 2 3 3 3 3 5 7 6 6 8 8 7 8 8 9 11 11 10 10 10 10 10 11 11 11 11 11 11 10 12 13 13 13 12 12 11 10 10 9 11 11 10 9 8 9
18 17 16 17 16 16 15 15 15 15 15 14 14 14 15 15 14 14 14 13 13 13 12 10 9 9 9 8 7 5 5 3 2 2 2 1 2 2 1 2 3 2 4 4 3 5 7 7 7 8 9 9 9 9 8 9 11 12 12 12 11 11 12 11 11 11 12 12 11 10 12 14 14 14 14 13 13 12 10 11 12 12 11 9 10
17 16 16 17 16 16 15 15 15 15 15 14 15 15 15 16 15 14 14 14 13 13 11 10 9 8 8 8 6 5 4 3 2 1 1 2 2 2 1 2 2 2 3 4 4 5 6 8 8 7 9 10 10 10 9 9 11 12 12 12 12 12 12 12 12 12 12 13 12 11 11 12 13 14 15 15 15 15 13 12 13 13 13 11 11
16 15 16 16 16 16 15 15 15 16 16 15 15 15 14 15 14 13 12 13 12 11 11 10 8 8 8 8 7 6 4 3 3 2 2 1 1 1 1 1 2 2 3 4 5 5 6 8 8 7 8 9 10 11 11 11 11 12 12 12 12 12 12 13 13 13 13 13 13 12 11 10 11 13 14 16 17 17 16 14 14 15 15 13 12
16 14 15 16 15 15 15 16 16 16 16 15 15 14 13 13 12 11 11 12 11 11 10 9 8 7 8 7 6 6 4 3 3 2 2 1 1 1 2 2 3 3 3 4 5 6 6 7 7 8 8 9 10 11 12 13 12 13 13 13 13 13 13 13 13 13 14 14 13 13 12 11 12 14 15 17 19 18 17 17 16 16 15 14 14
16 15 15 16 15 14 15 16 17 16 14 13 13 13 11 11 11 11 12 11 11 11 10 9 8 6 7 7 6 5 4 3 3 2 2 1 1 2 2 2 2 2 2 4 5 6 6 6 7 8 9 9 10 11 12 12 13 14 15 14 14 13 14 14 14 14 14 15 16 15 14 14 14 16 17 19 20 19 17 18 18 17 17 16 17
15 15 16 16 14 14 15 16 15 13 12 11 12 12 11 9 11 12 13 11 10 9 9 8 8 7 7 6 5 5 4 3 2 2 1 1 1 1 2 2 3 3 3 3 4 5 5 6 7 7 9 9 11 11 10 10 11 13 14 15 16 15 16 16 16 16 15 16 17 16 15 15 14 15 17 18 20 19 18 17 17 18 18 18 19
15 16 17 16 14 13 12 13 13 12 12 12 11 11 10 9 11 12 12 11 10 9 8 8 9 8 6 6 6 5 4 3 1 1 1 1 1 1 1 1 2 2 2 3 3 4 4 6 7 7 8 9 11 11 11 10 10 11 12 14 15 16 17 19 20 20 18 17 17 17 17 17 16 16 16 16 17 17 17 17 17 18 19 19 20
19 17 16 13 11 10 10 11 10 10 11 11 10 9 9 10 10 10 11 10 9 9 8 8 8 7 7 6 6 5 4 3 1 1 1 1 0 0 0 1 1 2 2 3 3 3 3 6 7 6 7 8 10 10 11 11 10 11 13 14 14 15 17 18 19 21 20 18 17 18 18 17 17 16 16 16 16 15 16 18 18 17 18 19 21
15 14 11 11 11 10 10 10 8 9 11 11 11 10 10 11 10 9 10 9 8 8 8 8 8 8 8 7 6 5 3 3 3 3 2 2 2 1 1 1 2 2 2 3 3 3 3 5 7 6 7 8 9 9 10 11 12 12 13 14 14 16 18 17 18 20 20 18 19 19 18 17 16 16 15 15 16 14 14 16 18 18 19 19 21
8 9 8 10 12 11 9 8 9 10 11 12 13 12 11 11 10 10 9 8 9 10 9 10 9 8 8 7 6 5 3 3 4 4 4 4 3 3 3 3 3 3 3 4 5 5 5 6 7 7 8 9 8 8 9 9 12 14 15 15 14 15 17 16 18 20 20 19 19 19 19 18 16 16 15 15 15 15 14 16 18 19 19 19 20
6 8 7 10 11 11 12 11 11 10 10 12 13 12 11 11 10 10 11 11 11 11 12 11 9 9 8 6 6 4 4 5 5 4 4 4 4 4 3 3 3 4 4 4 6 6 6 6 7 8 9 10 9 8 8 9 11 12 12 13 13 14 15 16 17 19 19 19 19 19 19 18 16 15 15 15 15 15 15 16 17 18 19 20 19
7 8 10 11 10 10 13 13 12 10 10 11 10 9 9 10 10 10 13 12 11 12 12 10 9 8 7 6 6 5 5 5 5 5 5 4 4 4 4 4 5 6 6 6 7 7 7 7 7 9 9 10 10 10 9 9 10 11 10 10 11 11 11 14 16 17 17 19 20 19 19 18 17 15 14 14 14 15 16 16 16 16 18 21 20
6 8 10 10 9 10 11 11 12 10 10 11 9 9 8 9 10 11 12 12 13 13 12 11 9 9 8 8 7 6 6 6 6 6 6 5 5 5 6 6 7 7 8 8 8 8 8 7 8 10 11 11 11 10 9 9 10 11 11 9 7 8 6 7 10 14 15 17 18 18 19 18 17 15 14 15 15 15 16 16 16 15 18 23 22
7 9 9 7 7 11 10 10 11 9 9 10 9 10 11 12 13 13 14 14 14 14 13 11 10 10 10 9 8 7 7 7 7 7 7 7 7 7 7 7 8 8 8 8 8 8 9 8 8 10 12 12 12 10 8 9 10 10 8 7 7 8 5 2 6 10 11 13 15 17 20 19 17 16 14 15 15 15 16 15 16 16 18 22 24
9 11 10 8 9 12 12 10 10 9 9 9 8 10 12 13 14 14 14 13 13 12 11 10 10 10 10 9 9 9 9 9 9 9 10 10 10 10 9 8 9 9 9 9 8 9 10 9 9 10 11 12 12 12 10 9 9 9 8 8 7 6 5 7 10 10 8 9 12 15 17 16 16 16 16 17 16 16 16 16 16 16 17 19 21
10 14 12 10 10 12 13 12 10 8 8 8 7 8 10 11 11 11 12 12 11 11 10 10 10 10 10 9 10 10 10 9 10 11 11 12 12 11 11 10 10 10 11 10 10 11 12 12 13 13 14 13 13 14 12 10 10 10 9 9 8 7 8 10 9 7 9 10 10 11 12 14 16 16 18 19 19 19 17 16 16 16 17 18 19
10 15 13 11 11 11 12 11 10 10 10 10 9 10 11 12 12 12 12 12 11 10 10 10 10 9 8 9 9 8 9 9 9 11 11 11 11 11 12 12 11 11 12 12 12 13 13 13 14 15 16 15 14 14 14 13 11 10 9 10 11 11 11 11 8 7 9 11 12 12 11 12 12 12 15 18 20 21 19 18 18 16 16 17 18
13 16 13 11 13 13 13 14 13 13 13 12 12 11 12 12 12 12 12 11 11 10 9 9 8 8 7 7 7 7 7 8 8 9 9 10 10 10 12 13 12 12 12 12 13 14 14 12 13 15 16 16 16 15 15 15 13 12 12 13 13 12 12 12 11 10 8 8 11 12 11 12 11 11 13 17 20 22 22 21 20 18 17 18 18
16 15 14 13 14 14 15 15 14 14 14 13 13 13 12 11 10 11 11 10 10 9 8 7 7 7 6 6 6 6 7 7 8 8 9 10 9 9 10 11 11 12 11 11 12 13 13 12 12 13 15 15 14 14 15 15 15 14 15 16 15 15 15 13 12 12 10 9 9 9 11 13 13 14 14 16 20 21 22 23 23 22 21 21 21
18 14 13 13 13 13 14 14 14 14 14 13 13 12 12 12 11 10 10 10 9 8 7 7 6 6 6 6 6 6 6 7 8 9 10 10 9 9 9 10 10 10 11 11 11 12 12 12 12 12 13 14 13 13 14 14 14 15 16 16 16 16 16 14 13 14 12 10 9 10 13 14 13 14 14 15 19 19 19 22 24 24 23 23 22
19 15 13 12 12 12 12 13 13 13 12 13 12 11 11 12 11 10 10 10 9 8 8 7 6 6 6 5 5 6 6 7 8 9 10 10 9 10 10 10 10 9 10 10 11 11 11 12 12 11 12 13 13 13 14 13 14 15 15 15 16 16 16 15 16 18 15 12 11 10 14 18 16 16 16 16 17 18 17 20 23 23 23 24 24
Wind_Direction
142 134 142 148 139 135 131 130 133 131 129 128 130 125 120 122 124 122 125 129 129 129 128 124 117 114 112 110 110 109 104 98 96 95 96 98 103 105 109 115 114 112 109 107 103 99 96 94 92 91 89 88 86 88 88 87 89 94 96 95 98 102 101 96 85 83 87 90 91 89 85 83 81 73 73 81 83 80 80 87 77 63 65 63 63
141 134 142 145 138 134 130 131 133 133 132 128 131 130 123 122 124 122 125 127 125 124 121 118 115 114 115 114 114 109 103 100 97 96 99 100 104 107 112 116 116 115 110 105 102 99 97 95 94 93 92 90 89 89 90 89 91 94 96 94 95 97 94 88 81 79 79 84 90 92 90 85 83 77 68 75 90 91 89 90 81 69 67 62 61
136 133 139 142 137 131 129 130 133 135 134 130 128 126 125 125 126 123 125 126 125 124 120 119 119 121 121 117 113 107 102 98 96 97 99 102 106 108 111 114 115 115 109 107 105 100 97 95 93 93 92 89 86 83 84 89 94 95 95 94 92 94 86 79 84 83 78 77 79 80 83 80 78 77 68 70 84 87 82 81 73 69 69 65 64
135 133 137 141 135 131 129 129 134 137 135 132 127 124 124 125 126 125 126 127 127 127 125 126 126 129 127 122 117 109 103 100 99 98 99 102 107 109 112 113 113 113 109 109 107 101 98 97 94 92 91 87 82 77 74 75 83 93 97 97 94 90 83 85 92 91 87 84 79 75 78 80 78 78 73 70 73 73 68 66 64 66 65 63 67
134 136 136 138 134 132 128 128 135 138 138 132 127 124 124 125 127 127 128 129 131 131 131 132 133 132 129 126 120 111 105 103 101 100 99 101 106 109 113 114 113 114 112 110 106 101 99 97 95 91 90 85 80 75 69 66 69 83 93 92 92 88 88 94 93 88 88 88 85 81 83 83 80 74 71 72 71 69 70 69 65 65 57 50 58
135 137 134 135 135 134 128 128 134 138 138 129 126 125 126 127 129 129 130 132 133 133 134 135 135 133 128 124 115 109 108 105 105 102 100 102 107 108 112 114 113 115 112 109 105 103 100 96 93 91 90 85 80 77 71 64 63 71 85 93 94 93 98 100 94 90 90 87 82 86 88 86 82 75 73 72 67 65 68 72 71 67 59 48 53
136 138 135 134 136 135 129 129 133 137 135 129 127 126 129 129 131 132 134 136 135 136 137 137 135 132 128 120 113 112 112 109 107 103 102 104 106 107 110 111 111 111 108 105 103 103 100 96 92 89 87 83 79 74 71 68 64 67 85 99 100 101 103 99 89 86 82 72 85 92 91 88 86 82 78 72 63 61 59 65 74 69 64 60 57
139 139 135 133 137 136 130 131 132 134 131 128 128 128 131 131 133 133 133 132 131 134 136 136 134 133 128 119 117 117 114 110 106 104 104 103 104 107 109 108 108 108 105 103 103 104 100 97 91 84 81 82 82 72 70 71 65 66 84 99 104 108 103 91 84 78 66 61 94 93 93 93 87 84 77 71 65 61 55 51 57 61 68 72 64
144 141 134 132 138 136 130 132 132 132 131 129 129 131 132 132 132 129 127 125 126 130 129 132 132 132 128 123 123 120 114 110 108 106 105 103 104 107 109 110 109 108 107 106 106 105 102 102 96 89 82 79 80 75 76 75 68 65 81 103 111 112 98 88 81 71 69 79 90 75 82 96 89 83 76 72 70 70 78 64 56 57 63 69 64
145 139 130 130 137 136 131 131 132 133 132 129 131 132 132 132 131 130 129 129 132 134 132 133 133 133 129 127 124 118 112 109 107 105 104 103 103 104 108 112 110 109 108 107 103 101 103 107 102 92 79 72 73 75 80 80 75 70 86 107 113 113 100 90 70 56 68 83 84 74 77 89 86 85 81 80 79 81 96 91 80 71 61 59 58
143 135 125 128 135 135 131 131 132 133 132 131 132 132 132 132 134 135 135 135 138 138 138 138 137 134 130 128 121 115 112 108 105 104 104 103 104 105 107 109 109 111 108 105 104 104 107 108 101 91 75 68 69 72 80 85 82 78 92 109 112 111 100 85 62 53 85 87 88 92 85 85 88 93 92 84 80 89 92 70 73 76 64 57 50
137 125 122 128 131 132 131 131 132 133 133 132 133 133 132 134 138 139 138 138 138 138 138 137 134 130 127 126 120 115 112 108 105 102 103 103 105 107 109 111 113 119 118 119 118 111 110 104 96 88 71 62 67 73 78 83 85 85 93 112 114 105 89 75 66 70 95 90 90 95 91 91 96 98 91 80 68 65 64 52 49 45 46 47 45
124 116 121 126 128 131 130 131 133 133 133 133 134 134 135 136 139 142 140 138 138 138 136 134 131 128 125 123 120 116 113 109 107 104 103 101 102 105 109 115 121 130 133 133 124 115 113 105 99 88 68 58 66 73 74 77 81 85 95 115 116 100 86 68 60 83 91 86 90 92 91 95 104 102 89 80 71 56 49 49 37 23 16 26 41
118 119 123 124 128 130 130 132 133 132 132 134 134 135 137 137 141 145 141 140 141 138 135 134 131 128 125 123 121 116 113 111 109 107 102 93 88 86 87 95 108 125 136 135 129 129 128 119 109 90 68 58 65 73 73 72 77 82 98 120 119 106 93 65 54 88 95 89 94 98 100 106 123 108 96 87 77 67 56 45 43 41 34 38 42
123 127 126 126 130 129 130 132 132 132 133 135 136 139 141 141 145 146 140 143 142 138 137 135 132 129 126 124 121 116 113 110 108 105 96 86 80 76 74 77 89 117 140 148 149 149 146 135 118 96 72 61 66 77 73 69 74 77 95 124 127 115 106 72 54 93 99 97 96 96 100 118 187 110 94 85 76 67 59 50 51 52 50 53 47
128 131 130 131 133 131 130 130 132 132 133 136 139 143 144 144 146 143 140 144 142 140 139 135 133 130 127 124 120 115 111 108 105 101 94 86 79 74 71 71 84 116 143 154 164 163 155 144 125 102 79 66 69 79 78 71 69 70 85 119 134 119 106 83 60 107 107 104 100 92 97 89 217 122 100 74 68 62 60 51 50 47 47 56 53
133 134 135 137 137 135 133 131 132 129 131 136 141 144 142 143 143 142 142 145 143 143 140 136 134 130 127 123 118 115 110 109 105 99 90 83 77 73 67 65 79 107 137 150 161 161 155 148 131 110 86 73 73 80 85 76 66 68 75 104 127 114 103 87 66 94 95 106 95 90 107 68 354 128 115 84 72 53 49 39 40 34 34 45 55
138 138 139 141 141 139 137 134 132 129 130 132 138 140 140 142 142 145 147 148 145 144 142 138 136 130 127 124 122 120 118 117 109 98 89 84 79 76 67 60 66 89 125 143 153 158 158 151 133 115 95 78 74 80 91 86 75 68 73 101 113 103 95 84 78 98 101 120 94 104 139 304 338 106 102 92 75 49 49 27 17 15 18 24 44
142 141 141 143 144 141 139 138 137 135 134 132 135 139 143 143 143 148 151 151 148 145 144 142 139 132 128 128 130 131 127 125 115 104 96 90 84 82 76 65 56 69 111 141 154 160 159 154 139 121 101 81 73 75 97 108 96 79 87 100 96 84 69 45 32 122 125 119 99 123 274 302 119 114 110 108 86 61 50 343 1 15 11 13 28
142 143 143 144 145 141 141 142 142 142 138 134 134 139 147 145 145 151 153 153 149 146 146 144 141 134 132 134 137 138 131 125 119 110 99 96 98 98 90 81 61 62 102 140 155 164 163 157 146 132 108 86 77 74 106 131 127 113 104 98 76 53 27 4 352 105 112 103 110 107 312 292 134 111 116 99 96 114 78 334 18 16 360 349 348
143 145 145 144 143 141 143 142 143 145 138 134 133 138 147 145 148 154 153 153 151 148 147 144 142 139 139 140 143 143 135 129 123 114 107 112 115 109 96 90 76 67 94 137 155 164 167 166 154 145 131 103 86 101 126 142 156 150 117 101 73 42 7 335 316 77 99 114 133 303 321 220 112 105 144 64 104 201 304 288 355 346 323 316 320
146 147 144 142 143 141 142 139 141 142 137 133 132 138 144 144 153 158 153 153 154 154 153 151 149 149 147 143 148 146 137 130 126 124 127 131 120 107 98 90 83 74 78 106 152 169 173 176 168 165 159 139 144 170 172 161 170 171 147 115 68 351 293 262 294 255 178 117 135 298 325 139 108 125 220 303 191 262 307 316 173 226 241 288 315
149 148 142 142 144 140 139 138 138 138 137 132 129 138 145 148 158 162 159 158 159 160 161 161 158 156 152 144 148 147 135 128 130 137 145 144 112 104 114 98 87 76 73 70 84 168 186 189 185 189 185 197 201 191 202 193 193 197 177 157 326 267 223 219 256 237 219 116 155 282 317 300 126 148 232 271 229 263 300 329 169 251 239 219 255
148 146 141 140 142 139 136 135 137 137 137 134 132 142 150 153 159 163 164 164 165 163 163 163 158 158 155 145 143 142 134 135 133 137 152 157 133 123 137 126 101 75 73 76 61 74 196 201 206 210 207 224 228 214 213 200 203 216 211 228 252 239 215 230 241 238 229 144 195 258 291 275 183 169 207 231 231 263 281 230 234 262 244 237 228
144 144 140 138 139 136 134 134 138 139 140 142 142 147 152 156 160 164 166 166 167 164 162 158 154 153 154 147 138 132 132 147 148 159 168 170 169 161 169 174 160 111 83 173 172 43 209 198 210 217 219 232 235 228 225 214 207 215 222 232 240 229 229 240 238 242 223 182 217 244 260 262 252 220 205 217 230 253 262 211 227 255 250 265 256
142 144 139 136 136 136 136 138 143 144 148 150 147 150 155 158 161 165 168 168 165 161 158 154 151 147 145 144 139 139 151 165 163 173 174 173 179 171 174 183 191 180 168 210 192 221 227 201 210 217 223 235 239 235 231 233 228 224 225 228 234 231 239 245 233 241 236 216 233 244 246 248 256 253 221 220 233 252 253 214 227 252 257 271 256
146 146 141 138 138 139 139 143 148 149 152 150 148 153 158 158 160 165 169 168 162 161 162 158 157 148 145 153 157 163 171 171 164 166 160 160 167 155 158 162 189 184 188 228 202 228 235 219 230 231 234 237 238 239 233 233 237 240 237 229 233 233 240 251 245 243 244 236 240 249 252 248 250 253 244 225 227 248 244 211 229 249 264 271 240
149 148 143 143 143 143 145 149 152 153 153 151 154 157 158 158 158 162 164 163 161 162 160 155 157 157 160 168 173 176 168 161 158 154 142 142 131 134 150 142 218 190 169 240 248 241 240 240 246 246 249 244 239 242 240 236 233 241 247 238 237 240 243 252 256 252 251 243 239 251 256 256 255 252 256 239 216 233 231 219 234 240 257 263 230
149 147 145 146 145 147 151 153 153 155 156 155 157 157 157 158 159 162 160 160 160 157 155 151 155 161 165 170 170 164 152 150 156 166 186 176 154 181 177 145 249 246 211 247 268 263 258 255 254 256 252 247 246 241 243 245 235 232 242 246 244 246 249 252 257 256 254 248 242 250 253 258 263 257 255 248 228 231 228 226 231 231 244 251 235
149 146 147 148 148 152 154 154 155 156 157 158 156 155 158 159 159 160 160 163 159 154 154 154 154 154 158 160 158 151 148 153 173 202 216 198 189 199 172 155 244 266 275 266 254 261 270 272 269 272 265 260 263 248 239 247 245 235 233 241 246 249 253 253 255 255 256 256 250 248 253 261 265 264 259 253 245 236 224 227 231 230 234 243 243
147 147 149 148 151 155 155 156 157 157 158 158 155 157 160 160 159 160 161 161 156 153 153 151 148 147 151 149 148 150 148 158 190 220 225 211 221 229 203 222 231 233 266 269 248 254 271 278 275 279 281 282 281 266 248 248 251 246 235 231 237 248 255 258 259 258 258 260 259 251 255 262 264 268 265 258 254 244 225 224 233 230 226 239 245
147 152 149 147 154 157 156 158 157 159 160 157 157 160 161 160 159 158 158 156 153 154 150 148 148 147 148 144 147 151 149 166 178 193 210 217 221 228 225 245 256 233 255 268 263 264 269 272 270 269 275 279 278 274 269 263 260 258 250 239 235 239 249 257 257 256 255 256 260 258 256 262 266 270 269 264 259 251 239 225 230 233 226 232 238
148 153 146 147 158 157 158 160 160 162 160 160 161 161 161 159 157 152 149 149 152 152 146 148 152 151 148 145 149 149 150 161 158 161 185 217 216 232 246 237 255 246 250 258 260 266 268 271 270 261 263 269 271 273 274 270 267 265 262 256 248 243 246 252 252 252 255 253 254 256 255 257 259 261 266 269 262 253 249 235 228 231 229 235 233
145 149 147 154 161 159 162 163 164 165 162 163 161 157 157 155 151 145 141 146 152 149 146 150 152 151 143 140 145 144 146 146 145 169 169 206 208 218 254 249 245 239 248 257 259 267 269 273 276 272 268 265 264 267 271 273 274 271 271 268 260 255 252 253 255 254 255 256 256 256 254 252 252 252 255 263 260 254 252 244 235 229 227 236 236
145 149 154 161 163 164 167 164 164 163 160 161 157 153 152 151 149 146 147 154 154 148 148 151 148 144 132 130 137 136 140 142 142 169 178 218 219 215 241 247 244 239 255 264 269 276 276 279 284 285 282 273 266 262 263 272 276 274 279 281 272 269 266 260 257 254 255 257 256 256 254 253 251 247 247 249 250 251 250 245 243 237 225 226 233
146 153 161 167 169 170 168 162 158 155 154 156 154 152 147 149 154 152 153 155 150 149 154 151 140 131 121 121 127 129 133 137 145 168 191 229 232 236 234 232 234 236 253 260 272 286 293 291 287 288 291 288 283 276 272 279 277 271 274 276 276 279 277 271 267 262 257 256 257 256 254 255 251 246 246 241 236 242 246 241 243 244 234 225 228
152 161 167 170 168 166 162 154 150 150 155 155 151 149 144 153 160 158 158 157 154 151 146 135 126 120 117 116 118 119 118 122 132 147 202 256 231 240 210 213 243 249 250 251 271 293 299 293 289 286 289 291 291 290 289 290 286 282 281 278 278 279 272 269 272 271 265 259 259 259 256 256 255 251 250 243 236 243 245 240 241 243 240 233 229
166 164 161 162 158 156 152 146 149 152 153 148 146 148 151 157 160 153 148 148 142 130 124 121 116 112 112 110 109 110 103 102 84 54 20 327 10 324 280 230 293 298 276 265 274 294 295 295 299 292 288 291 293 295 296 297 295 291 289 287 286 283 276 271 273 276 274 268 265 263 261 259 257 253 250 245 244 246 241 239 240 239 240 238 234
168 158 148 154 154 157 154 146 153 156 146 143 153 163 160 154 151 141 131 126 118 115 123 121 111 106 108 106 103 103 91 74 64 50 28 7 15 2 342 332 321 313 308 299 291 302 307 304 308 306 299 296 295 297 299 300 297 293 287 285 282 278 278 276 273 274 272 271 272 270 268 264 259 255 251 247 247 246 239 239 239 237 238 239 236
157 148 142 147 146 153 156 152 163 163 152 155 166 170 158 147 148 142 132 127 123 122 119 111 108 106 105 104 99 93 75 62 62 50 29 12 5 5 355 340 331 321 323 325 316 315 318 311 307 307 302 298 296 293 296 297 295 292 283 276 272 268 269 269 267 268 265 267 272 274 272 268 262 257 254 251 251 247 241 241 242 239 238 241 239
132 134 143 145 141 154 163 163 171 169 167 175 175 169 160 156 157 145 133 127 122 116 107 100 102 100 95 94 90 79 66 59 56 48 31 14 6 4 354 342 340 330 321 319 315 312 314 309 303 301 297 295 294 291 294 296 293 291 286 279 276 271 265 262 265 268 268 267 268 271 274 271 268 263 257 254 253 250 245 243 244 241 235 236 241
123 131 157 161 150 162 171 167 170 173 180 189 180 167 163 154 147 134 126 119 114 111 105 100 101 97 90 85 81 70 63 55 44 43 35 17 6 357 346 341 339 329 319 309 307 310 310 305 300 298 293 289 289 292 294 292 295 301 302 296 291 286 269 256 260 264 267 269 266 267 273 275 273 269 264 260 258 254 251 245 242 238 231 230 235
141 146 163 168 158 166 173 162 161 172 185 186 169 157 150 131 120 117 115 107 107 111 109 108 107 101 91 82 76 61 54 46 32 35 36 22 5 350 344 345 342 334 328 320 317 315 306 301 300 297 296 293 292 296 292 289 302 308 304 300 300 304 282 240 250 260 263 268 267 263 264 266 267 267 268 266 263 258 254 249 242 237 234 233 231
151 155 163 176 168 161 160 154 156 167 174 168 152 141 134 120 111 109 107 103 106 109 105 101 95 90 84 73 65 54 46 39 30 30 30 24 12 357 349 347 344 337 330 326 325 321 313 309 305 300 301 301 303 308 299 291 302 306 306 307 306 303 299 303 303 290 271 262 263 261 258 258 261 266 268 266 265 261 255 250 244 240 242 242 235
156 160 161 166 163 154 151 152 155 158 155 147 137 131 125 118 113 111 107 103 101 98 91 87 80 73 69 63 58 50 43 37 30 27 25 22 18 8 360 352 345 343 338 334 336 338 335 331 324 318 316 314 314 315 310 303 300 296 299 306 306 302 313 332 326 312 293 267 260 262 259 257 262 266 268 266 263 261 255 249 248 244 244 245 238
149 148 145 145 146 144 143 142 140 135 123 115 116 118 113 107 107 107 103 98 91 82 76 79 79 70 63 61 55 42 35 35 29 24 18 14 11 5 3 360 356 357 354 350 352 352 350 346 341 336 330 326 323 315 312 314 306 295 294 292 290 293 305 318 320 311 307 296 283 277 266 261 260 261 267 267 264 265 261 251 248 248 244 244 242
104 115 116 119 115 111 115 110 101 96 88 88 91 95 97 93 91 91 93 97 96 90 82 81 82 78 71 63 53 43 37 34 26 18 13 10 9 7 8 8 7 6 1 359 360 356 350 345 341 339 338 338 336 328 321 320 314 306 306 299 291 288 288 294 299 304 310 303 300 299 286 276 268 262 269 271 266 265 265 259 251 249 248 245 242
91 95 96 96 91 87 88 83 79 76 72 72 73 76 81 83 87 89 90 96 100 96 90 85 81 78 73 64 58 56 45 33 23 16 16 17 17 16 13 9 5 0 358 359 0 355 346 339 335 338 343 344 344 342 337 333 328 323 324 319 310 300 287 280 282 291 300 302 303 304 301 299 293 280 272 273 274 269 265 266 259 248 245 244 240
98 96 94 89 85 84 85 84 81 76 71 69 69 70 75 80 89 95 94 96 98 99 95 89 84 83 78 67 60 53 39 33 31 26 25 23 21 18 13 11 7 1 359 356 355 354 347 343 341 341 343 341 339 344 344 339 335 334 334 331 324 318 309 300 294 291 291 295 300 305 309 309 303 294 280 275 284 282 268 262 261 256 250 246 243
105 102 100 98 98 96 92 90 86 81 77 75 74 73 77 85 91 97 104 104 101 103 102 94 88 88 81 64 56 51 42 37 37 33 26 22 21 19 14 12 9 1 357 351 347 348 346 344 343 342 342 339 336 342 342 338 337 335 333 331 329 328 325 320 317 314 307 301 300 304 308 309 307 305 294 281 286 288 275 260 257 260 256 249 247
120 118 116 116 112 105 99 93 88 84 81 78 78 75 74 80 85 89 98 99 95 94 95 89 76 74 71 63 61 60 54 42 36 32 24 20 21 21 16 10 6 358 350 346 342 341 339 336 336 338 341 338 336 340 341 341 341 334 331 330 328 326 323 320 322 324 321 314 312 309 307 308 307 304 301 295 289 284 280 267 255 256 255 248 246